Cairo, IL

8:54 PM CST on December 07, 2019 (GMT -0600)
Cairo Regional

Weather History for KCIR - October, 2019

Change the Weather History Date:

Tuesday, October 15, 2019

  Actual Average Record
Temperature  
Mean Temperature 58 °F -  
Max Temperature 71 °F 71 °F 86 °F (2008)
Min Temperature 45 °F 49 °F 37 °F (2006)
Degree Days  
Heating Degree Days 7    
Growing Degree Days 8 (Base 50)    
Moisture  
Dew Point 57 °F    
Average Humidity 92    
Maximum Humidity 100    
Minimum Humidity 69    
Precipitation  
Precipitation 0.13 in - - ()
Sea Level Pressure  
Sea Level Pressure 29.94 in    
Wind  
Wind Speed 2 mph ()    
Max Wind Speed 12 mph    
Max Gust Speed 22 mph    
Visibility 9.0 miles    
Events Rain , Thunderstorm    
Averages and records for this station are not official NWS values.
T = Trace of Precipitation, MM = Missing Value Source: Averaged Metar Reports

Daily Weather History Graph

Daily Weather History Graph

Search for Another Location

Airport or City:

Astronomy

Oct. 15, 2019 Rise Set
Actual Time 7:04 AM CDT 6:20 PM CDT
Civil Twilight 6:38 AM CDT 6:46 PM CDT
Nautical Twilight 6:08 AM CDT 7:16 PM CDT
Astronomical Twilight 5:37 AM CDT 7:46 PM CDT
Moon 7:42 PM CDT (10/15) 8:33 AM CDT (10/15)
Length of Visible Light 12h 08m
Length of Day
11h 15m
Full, 97% of the Moon is Illuminated
Oct 15
Full
Oct 21
Last Quarter
Oct 27
New
Nov 4
First Quarter
Nov 12
Full

Hourly Weather History & Observations

Time (CDT) Temp. Dew Point Humidity Pressure Visibility Wind Dir Wind Speed Gust Speed Precip Events Conditions
12:15 AM 48.2 °F 48.0 °F 99% 30.05 in 10.0 mi Calm Calm - N/A   Clear
12:35 AM 47.1 °F 46.9 °F 99% 30.06 in 10.0 mi Calm Calm - N/A   Clear
12:55 AM 49.1 °F 49.1 °F 100% 30.05 in 10.0 mi Calm Calm - N/A   Clear
1:15 AM 47.8 °F 47.8 °F 100% 30.05 in 5.0 mi Calm Calm - N/A   Clear
1:35 AM 46.9 °F 46.9 °F 100% 30.05 in 10.0 mi Calm Calm - N/A   Clear
1:55 AM 46.8 °F 46.8 °F 100% 30.04 in 10.0 mi Calm Calm - N/A   Clear
2:15 AM 46.4 °F 46.2 °F 99% 30.04 in 10.0 mi Calm Calm - N/A   Clear
2:35 AM 47.3 °F 47.3 °F 100% 30.04 in 10.0 mi Calm Calm - N/A   Clear
2:55 AM 46.6 °F 46.4 °F 99% 30.04 in 10.0 mi Calm Calm - N/A   Clear
3:35 AM 46.8 °F 46.4 °F 99% 30.02 in 10.0 mi Calm Calm - N/A   Clear
3:55 AM 46.6 °F 46.2 °F 99% 30.01 in 10.0 mi Calm Calm - N/A   Clear
4:15 AM 46.4 °F 46.0 °F 99% 30.01 in 10.0 mi Calm Calm - N/A   Clear
4:35 AM 46.8 °F 46.6 °F 99% 30.02 in 10.0 mi Calm Calm - N/A   Clear
4:55 AM 46.6 °F 46.2 °F 99% 30.01 in 10.0 mi Calm Calm - N/A   Clear
5:15 AM 46.8 °F 46.6 °F 99% 30.01 in 10.0 mi Calm Calm - N/A   Clear
5:35 AM 47.5 °F 47.3 °F 99% 30.02 in 10.0 mi Calm Calm - N/A   Clear
5:55 AM 46.6 °F 46.6 °F 100% 30.02 in 10.0 mi Calm Calm - N/A   Clear
6:15 AM 45.9 °F 45.9 °F 100% 30.01 in 10.0 mi Calm Calm - N/A   Clear
6:35 AM 46.6 °F 46.4 °F 99% 30.02 in 10.0 mi Calm Calm - N/A   Clear
6:55 AM 46.0 °F 46.0 °F 100% 30.02 in 10.0 mi Calm Calm - N/A   Mostly Cloudy
7:15 AM 48.4 °F 48.4 °F 100% 30.01 in 10.0 mi Calm Calm - N/A   Overcast
7:35 AM 50.0 °F 50.0 °F 100% 30.01 in 10.0 mi Calm Calm - N/A   Overcast
7:55 AM 50.7 °F 50.7 °F 100% 30.01 in 10.0 mi Calm Calm - N/A   Overcast
8:15 AM 52.9 °F 52.5 °F 99% 30.01 in 10.0 mi Calm Calm - N/A   Overcast
8:35 AM 54.1 °F 53.6 °F 98% 30.00 in 10.0 mi Calm Calm - N/A   Overcast
8:55 AM 55.9 °F 54.0 °F 93% 30.01 in 10.0 mi SE 3.5 mph - N/A   Overcast
9:15 AM 57.4 °F 53.8 °F 88% 30.01 in 10.0 mi SSE 5.8 mph - N/A   Overcast
9:35 AM 58.3 °F 55.0 °F 89% 30.00 in 10.0 mi SSE 4.6 mph - N/A   Overcast
9:55 AM 59.2 °F 55.0 °F 86% 29.99 in 10.0 mi SSE 5.8 mph - N/A   Overcast
10:15 AM 60.3 °F 55.6 °F 85% 29.98 in 10.0 mi SSE 3.5 mph - N/A   Overcast
10:35 AM 61.3 °F 55.9 °F 82% 29.97 in 10.0 mi SSE 3.5 mph - N/A   Overcast
10:55 AM 62.2 °F 56.1 °F 80% 29.97 in 7.0 mi Calm Calm - N/A   Overcast
11:15 AM 63.0 °F 56.5 °F 79% 29.97 in 10.0 mi Calm Calm - N/A   Overcast
11:35 AM 64.2 °F 57.2 °F 78% 29.96 in 10.0 mi South 4.6 mph - N/A   Overcast
11:55 AM 67.6 °F 57.7 °F 71% 29.95 in 7.0 mi South 5.8 mph - N/A   Mostly Cloudy
12:15 PM 67.5 °F 57.7 °F 71% 29.95 in 10.0 mi South 3.5 mph - N/A   Overcast
12:35 PM 68.2 °F 57.7 °F 69% 29.95 in 10.0 mi South 5.8 mph - N/A   Overcast
12:55 PM 68.0 °F 58.3 °F 71% 29.93 in 10.0 mi SSW 5.8 mph - N/A   Overcast
1:15 PM 67.6 °F 58.5 °F 72% 29.92 in 10.0 mi South 3.5 mph - N/A   Overcast
1:35 PM 68.7 °F 59.4 °F 72% 29.91 in 10.0 mi South 5.8 mph - N/A   Overcast
1:55 PM 68.2 °F 60.8 °F 77% 29.90 in 10.0 mi SSW 5.8 mph - N/A   Overcast
2:15 PM 68.9 °F 61.2 °F 76% 29.89 in 10.0 mi SSW 4.6 mph - N/A   Overcast
2:35 PM 68.5 °F 61.7 °F 79% 29.88 in 10.0 mi SSW 5.8 mph - N/A   Overcast
2:55 PM 69.1 °F 62.6 °F 80% 29.87 in 10.0 mi South 5.8 mph - N/A   Overcast
3:15 PM 70.9 °F 63.5 °F 77% 29.86 in 10.0 mi South 8.1 mph - N/A   Overcast
3:35 PM 71.1 °F 64.6 °F 80% 29.86 in 10.0 mi South 8.1 mph - N/A   Overcast
3:55 PM 70.9 °F 65.3 °F 82% 29.85 in 10.0 mi South 9.2 mph 16.1 mph N/A   Overcast
4:15 PM 70.7 °F 65.5 °F 83% 29.85 in 10.0 mi SSW 8.1 mph - N/A   Overcast
4:35 PM 70.9 °F 65.7 °F 83% 29.85 in 10.0 mi SSW 11.5 mph 16.1 mph N/A   Overcast
4:55 PM 70.3 °F 65.8 °F 86% 29.85 in 10.0 mi SSW 8.1 mph - N/A   Overcast
5:15 PM 69.8 °F 65.8 °F 87% 29.85 in 10.0 mi SW 4.6 mph - N/A   Overcast
5:35 PM 69.4 °F 66.0 °F 89% 29.86 in 7.0 mi WSW 4.6 mph - N/A   Overcast
5:55 PM 67.6 °F 67.1 °F 98% 29.86 in 1.8 mi WSW 6.9 mph - 0.02 in   Heavy Drizzle
6:15 PM 67.1 °F 67.1 °F 100% 29.86 in 2.5 mi WSW 6.9 mph - 0.06 in Rain Heavy Rain
6:35 PM 67.1 °F 67.1 °F 100% 29.86 in 3.0 mi West 3.5 mph - 0.07 in   Heavy Drizzle
6:55 PM 66.6 °F 66.6 °F 100% 29.85 in 2.5 mi WSW 4.6 mph - 0.08 in Rain , Thunderstorm Heavy Thunderstorms and Rain
7:15 PM 66.4 °F 66.4 °F 100% 29.85 in 4.0 mi West 4.6 mph - N/A Thunderstorm Unknown
7:35 PM 66.4 °F 66.4 °F 100% 29.85 in 7.0 mi Calm Calm - N/A   Overcast
7:55 PM 66.2 °F 66.2 °F 100% 29.84 in 10.0 mi Calm Calm - N/A   Overcast
8:15 PM 66.2 °F 66.2 °F 100% 29.84 in 10.0 mi Calm Calm - N/A   Overcast
8:35 PM 66.2 °F 66.2 °F 100% 29.83 in 10.0 mi Calm Calm - 0.01 in Rain Light Rain
8:55 PM 66.2 °F 66.2 °F 100% 29.83 in 10.0 mi Calm Calm - 0.01 in   Light Drizzle
9:15 PM 65.8 °F 65.8 °F 100% 29.84 in 10.0 mi West 4.6 mph - N/A   Overcast
9:35 PM 65.8 °F 65.8 °F 100% 29.86 in 7.0 mi West 4.6 mph - N/A Rain , Thunderstorm Light Thunderstorms and Rain
9:55 PM 65.8 °F 65.8 °F 100% 29.85 in 7.0 mi West 5.8 mph - N/A Rain Rain
10:15 PM 65.8 °F 65.8 °F 100% 29.86 in 7.0 mi WSW 5.8 mph - N/A Rain , Thunderstorm Rain
10:35 PM 65.8 °F 65.8 °F 100% 29.85 in 5.0 mi West 6.9 mph - 0.02 in Rain Light Rain
11:15 PM 64.8 °F 64.2 °F 98% 29.86 in 10.0 mi NW 11.5 mph 21.9 mph N/A   Mostly Cloudy
11:35 PM 63.9 °F 61.2 °F 91% 29.86 in 10.0 mi NNW 10.4 mph 18.4 mph N/A   Overcast
11:55 PM 63.1 °F 60.3 °F 90% 29.87 in 10.0 mi NNW 6.9 mph - N/A   Overcast